Location: Turtle Rock Observatory
(36.6913°N, 81.9708°W)
Time: 23:19:01
(UTC-04:00)

TITAN 4B R/B - Visible Passes

Search period start: 30 March 2015 00:00
Search period end: 09 April 2015 00:00
Orbit: 469 x 650 km, 57.0° (Epoch: 28 March)

Date Brightness Start Highest point End Pass type
(mag) Time Alt. Az. Time Alt. Az. Time Alt. Az.
30 Mar 4.4 20:42:54 10° NW 20:44:08 11° NNW 20:45:14 10° N visible
06 Apr 4.1 22:11:45 10° N 22:13:23 12° NNE 22:13:29 12° NNE visible
06 Apr 4.8 23:49:16 10° NNW 23:49:21 10° NNW 23:49:21 10° NNW visible
07 Apr 3.9 22:08:57 10° N 22:11:23 15° NNE 22:11:23 15° NNE visible
07 Apr 4.7 23:47:01 10° NW 23:47:15 11° NW 23:47:15 11° NW visible
08 Apr 3.6 22:06:20 10° N 22:09:19 19° NNE 22:09:19 19° NNE visible
08 Apr 4.7 23:44:50 10° NW 23:45:11 12° NW 23:45:11 12° NW visible
